Location: Newark
(41.8500°S, 167.0500°W)
Time: 05:44:14
(UTC+00:00)

Envisat - Visible Passes

Search period start: 20 January 2020 00:00
Search period end: 30 January 2020 00:00
Orbit: 764 x 766 km, 98.1° (Epoch: 19 January)

Date Brightness Start Highest point End Pass type
(mag) Time Alt. Az. Time Alt. Az. Time Alt. Az.
22 Jan 6.1 07:15:42 10° SSW 07:19:11 19° WSW 07:22:38 10° WNW visible
22 Jan 6.8 15:16:13 10° ESE 15:17:07 10° ESE 15:18:03 10° SE visible
24 Jan 6.7 07:42:56 10° SW 07:44:17 11° WSW 07:45:37 10° WSW visible
25 Jan 6.0 07:04:03 10° SSW 07:08:01 23° WSW 07:11:56 10° WNW visible
27 Jan 6.4 07:30:38 10° SSW 07:33:10 14° WSW 07:35:41 10° W visible
27 Jan 6.5 15:28:25 10° E 15:31:05 14° ESE 15:33:46 10° SSE visible
